Starlink 31532

operational
NORAD ID: 59349 Int'l Des: 2024-060 Owner: SPXS Country: US Constellation: starlink
LEOCIRCULAR

Starlink 31532について

説明を読み込み中...

リアルタイム位置

3D地球を読み込み中...

次回通過

高度履歴

Altitude vs Time

uPlot chart will show altitude changes over time

軌道要素

1 59349U 24060B 25305.86468687 .00004434 00000-0 17068-3 0 9990
2 59349 43.0027 261.7501 0001608 269.1867 90.8800 15.27557279 90569
Epoch: Nov 1, 2025 • Age: 29 hours

現在のステータス

高度 487.3 km
速度 7.63 km/s
衛星直下点 42.77°N, 69.47°W
打ち上げ日 Mar 31, 2024
運用期間 1.5 years
タイプ internet

技術仕様

分類 Payload
質量 730.00 kg
乾燥質量 700.00 kg
総質量 730.00 kg
長さ 0.30 m
直径 4.10 m
スパン 29.00 m
形状 Box + pan
製造者 SPXS
バスタイプ Starlink V2M
フェーズステータス In Orbit
所有者/国 SPXS/US

大規模コンステレーション

Loading constellations...